[[{"header":{"parameterUnit":"m.s-1","parameterCategory":1,"la1":30.2991,"la2":30.254,"lo1":-89.0895,"lo2":-89.0444,"dy":0.0017,"dx":0.0017,"nx":28,"ny":28,"refTime":"2025-12-30T03:00:00:Z","depth":0,"parameterNumber":2,"parameterNumberName":"U-component_of_WINDS"},"data":[0,0,0,0,0,0,0,0,0,0,0,0,0,0,0,0,0,0,0,0,0,0,0,0,0,0,0,0,0,0,0,0,0,0,0,0,0,0,0,0,0,0,0,0,0,0,0,0,0,0,0,0,0,0,0,0,0,0,1.7549,1.7549,0,1.7502,1.7502,1.7501,1.7463,1.7462,1.7462,1.7462,1.741,1.7409,1.7408,0,0,0,0,0,0,0,0,0,0,0,0,0,1.7605,1.7604,1.7549,1.7549,1.7548,1.7502,1.7502,1.7501,1.7463,1.7462,1.7462,1.7461,1.7411,1.741,1.7408,0,0,0,0,0,0,0,0,0,0,0,0,0,1.7571,1.7604,1.7549,1.7524,1.7521,1.7502,1.7501,1.7501,1.7463,1.7462,1.7462,1.7461,1.7411,1.741,1.7408,1.741,0,0,1.7404,1.7403,0,0,0,0,0,0,0,0,1.7573,1.7569,1.7528,1.7525,1.7522,1.7488,1.7502,1.747,1.7463,1.7485,1.7462,1.7461,1.7436,1.7433,1.7425,1.7408,1.7406,1.7403,1.7403,1.7402,1.7401,0,0,0,0,0,0,0,1.7576,1.7571,1.753,1.7528,1.7524,1.7514,1.7509,1.7496,1.7464,1.7483,1.748,1.7475,1.7435,1.7427,1.7424,1.7405,1.7404,1.7402,1.7401,1.7401,1.7388,1.7388,0,0,0,0,0,0,1.7582,1.7573,1.7532,1.7529,1.7547,1.7513,1.7507,1.7499,1.7464,1.7459,1.7476,1.7474,1.743,1.7425,1.7422,1.7422,1.7402,1.7401,1.74,1.7387,1.7388,1.7389,0,0,0,0,0,0,1.7584,1.7579,1.7534,1.7551,1.7544,1.7513,1.7504,1.7499,1.7491,1.7459,1.7453,1.7473,1.7429,1.7424,1.7414,1.742,1.74,1.7398,1.7387,1.7388,1.7388,1.7423,0,0,0,0,0,0,1.7586,1.758,1.7581,1.7551,1.7543,1.7527,1.7505,1.7498,1.7489,1.7485,1.7455,1.745,1.7428,1.7416,1.7412,1.7417,1.7397,1.7386,1.7387,1.7388,1.7421,1.7425,1.7428,0,0,0,0,0,1.7588,1.7591,1.7581,1.7576,1.7544,1.7528,1.7523,1.7499,1.7489,1.7489,1.7469,1.7451,1.742,1.7416,1.7411,1.7415,1.7385,1.7387,1.7388,1.7419,1.7424,1.7428,0,0,0,0,0,0,1.7621,1.7587,1.7575,1.7569,1.7552,1.7521,1.7521,1.7505,1.7489,1.7487,1.7457,1.745,1.7444,1.7429,1.7424,1.7416,1.74,1.7401,1.7426,1.743,1.7433,1.7437,1.7396,0,0,0,0,0,1.7628,1.7619,1.7589,1.7587,1.7579,1.7552,1.7544,1.7527,1.7508,1.75,1.7479,1.746,1.7446,1.7437,1.7423,1.7419,1.7412,1.742,1.7424,1.7427,1.7427,1.7424,1.7427,1.7393,1.7393,1.7393,0,0,1.7642,1.7622,1.7618,1.7593,1.7578,1.7568,1.7546,1.7536,1.7529,1.7498,1.7487,1.7472,1.7448,1.7442,1.7438,1.7429,1.7435,1.7428,1.7431,1.7429,1.7426,1.7429,1.7432,1.7394,1.7394,1.7393,0,0,1.7662,1.7646,1.7643,1.7629,1.7606,1.7588,1.7588,1.756,1.7549,1.7538,1.7515,1.7505,1.7482,1.7467,1.7456,1.7473,1.7455,1.7469,1.7486,1.7484,1.7487,1.7489,1.7494,1.7497,1.7469,1.7469,1.7469,0,1.7681,1.7667,1.7643,1.7636,1.7625,1.7599,1.7595,1.7582,1.7556,1.7549,1.754,1.7511,1.7494,1.7483,1.7488,1.748,1.7478,1.7471,1.7488,1.749,1.7492,1.7497,1.7499,1.7471,1.7471,1.7471,1.7471,0,1.7692,1.7682,1.7682,1.7659,1.7649,1.7643,1.7618,1.7611,1.7596,1.7579,1.7569,1.7547,1.7528,1.7525,1.7509,1.7512,1.7508,1.7494,1.7477,1.7498,1.7502,1.7503,1.7474,1.7473,1.7473,1.7472,0,0,1.773,1.7695,1.7695,1.7685,1.7659,1.7651,1.7644,1.7627,1.7621,1.7604,1.7597,1.758,1.7567,1.7555,1.7538,1.7536,1.755,1.7522,1.7521,1.7528,1.7552,1.7562,1.7565,1.7539,1.7539,1.7539,1.7554,0,1.7745,1.7733,1.7712,1.7706,1.7696,1.7672,1.7666,1.765,1.7634,1.7624,1.7606,1.7594,1.7579,1.7571,1.7568,1.7549,1.7554,1.7548,1.7531,1.7531,1.7537,1.7567,1.7577,1.7591,1.7555,1.7556,1.7556,0,1.7761,1.7747,1.774,1.7716,1.7712,1.7707,1.769,1.768,1.7661,1.765,1.7638,1.7619,1.7611,1.7597,1.7585,1.7581,1.7573,1.7563,1.7563,1.7559,1.7544,1.7563,1.7595,1.7597,1.7558,1.7558,1.7558,0,1.7789,1.7768,1.7762,1.7754,1.7725,1.7723,1.7711,1.7691,1.7682,1.7667,1.7661,1.7645,1.7636,1.7624,1.7602,1.7594,1.7592,1.7576,1.7582,1.7582,1.7581,1.7581,1.7612,1.7578,1.7578,1.7578,1.7578,0,1.7807,1.7804,1.7774,1.777,1.7766,1.7742,1.7738,1.7724,1.7707,1.7699,1.7677,1.7671,1.7642,1.7632,1.7615,1.7607,1.7603,1.7593,1.7589,1.7595,1.7596,1.7588,1.7586,1.7578,1.7578,1.7578,1.7578,0,1.7837,1.7817,1.7808,1.7783,1.7777,1.7774,1.7752,1.7747,1.7732,1.7722,1.7719,1.7693,1.768,1.7657,1.7637,1.7626,1.7621,1.7614,1.7628,1.7625,1.7631,1.7631,1.7657,1.7659,1.7626,1.7626,1.7626,0,1.785,1.7847,1.7822,1.7816,1.7805,1.7795,1.7787,1.7764,1.7756,1.7735,1.7732,1.7718,1.7705,1.7685,1.7664,1.7649,1.764,1.7651,1.7638,1.7644,1.764,1.764,1.7639,1.7653,1.7654,1.7654,1.7655,0,1.7874,1.7865,1.7854,1.784,1.783,1.7818,1.7804,1.78,1.7774,1.7766,1.7753,1.7743,1.7724,1.771,1.7692,1.7679,1.7662,1.7659,1.766,1.7665,1.7673,1.7669,1.7635,1.7658,1.7658,1.7658,1.7657,1.7657,1.7895,1.7892,1.7874,1.7862,1.785,1.7838,1.7833,1.7817,1.7806,1.7789,1.7776,1.7764,1.7746,1.7721,1.7709,1.7699,1.7691,1.7692,1.7692,1.7692,1.7694,1.7676,1.7696,1.7695,1.7695,1.7695,1.7695,0,1.7918,1.7906,1.7896,1.7878,1.7869,1.7856,1.7841,1.7834,1.7824,1.7809,1.7797,1.7783,1.7769,1.7749,1.7733,1.7729,1.7721,1.7726,1.7726,1.7723,1.7702,1.7703,1.7733,1.7733,1.7733,1.7733,1.7733,1.7733,1.7929,1.7922,1.7911,1.7898,1.7886,1.7875,1.7867,1.7856,1.7844,1.7829,1.7819,1.7806,1.7788,1.7772,1.7759,1.7753,1.7748,1.7755,1.7747,1.7728,1.7724,1.7721,1.7721,1.7755,1.7755,1.7768,1.7768,1.7768]},{"header":{"parameterUnit":"m.s-1","parameterCategory":1,"la1":30.2991,"la2":30.254,"lo1":-89.0895,"lo2":-89.0444,"dy":0.0017,"dx":0.0017,"nx":28,"ny":28,"refTime":"2025-12-30T03:00:00:Z","depth":0,"parameterNumber":3,"parameterNumberName":"V-component_of_WINDS"},"data":[0,0,0,0,0,0,0,0,0,0,0,0,0,0,0,0,0,0,0,0,0,0,0,0,0,0,0,0,0,0,0,0,0,0,0,0,0,0,0,0,0,0,0,0,0,0,0,0,0,0,0,0,0,0,0,0,0,0,-5.8165,-5.8166,0,-5.8285,-5.8286,-5.8287,-5.8269,-5.8266,-5.8264,-5.8263,-5.838,-5.8385,-5.839,0,0,0,0,0,0,0,0,0,0,0,0,0,-5.7917,-5.7922,-5.8165,-5.8166,-5.8168,-5.8284,-5.8286,-5.8288,-5.8269,-5.8266,-5.8264,-5.8262,-5.8378,-5.8384,-5.839,0,0,0,0,0,0,0,0,0,0,0,0,0,-5.8029,-5.7923,-5.8165,-5.8173,-5.8175,-5.8284,-5.8286,-5.8288,-5.8269,-5.8266,-5.8263,-5.826,-5.8376,-5.8384,-5.8391,-5.8498,0,0,-5.8414,-5.8417,0,0,0,0,0,0,0,0,-5.8023,-5.8038,-5.817,-5.8172,-5.8175,-5.8259,-5.8242,-5.8358,-5.827,-5.8233,-5.8262,-5.8259,-5.8342,-5.8352,-5.8381,-5.8504,-5.8509,-5.8415,-5.8419,-5.8422,-5.8425,0,0,0,0,0,0,0,-5.8015,-5.8033,-5.8212,-5.8172,-5.8175,-5.8169,-5.8182,-5.8264,-5.8303,-5.8236,-5.8235,-5.825,-5.8342,-5.8374,-5.8383,-5.8511,-5.8414,-5.8421,-5.8426,-5.8429,-5.873,-5.8733,0,0,0,0,0,0,-5.8006,-5.8027,-5.8208,-5.8216,-5.809,-5.8176,-5.819,-5.8235,-5.8302,-5.8309,-5.8252,-5.8249,-5.8362,-5.8375,-5.8387,-5.8519,-5.8422,-5.8429,-5.8434,-5.8727,-5.8731,-5.8735,0,0,0,0,0,0,-5.8,-5.8022,-5.8203,-5.8121,-5.8144,-5.8184,-5.8234,-5.8239,-5.827,-5.8314,-5.8321,-5.8277,-5.836,-5.8377,-5.8472,-5.8523,-5.8433,-5.844,-5.8722,-5.8728,-5.8733,-5.8783,0,0,0,0,0,0,-5.7993,-5.802,-5.8062,-5.8122,-5.8148,-5.8287,-5.8237,-5.8243,-5.8284,-5.828,-5.8339,-5.8346,-5.8359,-5.8461,-5.8479,-5.8532,-5.8445,-5.8718,-5.8725,-5.8731,-5.8777,-5.8789,-5.88,0,0,0,0,0,-5.7985,-5.807,-5.8064,-5.8086,-5.8202,-5.829,-5.8305,-5.8319,-5.8288,-5.833,-5.8359,-5.8344,-5.8514,-5.8471,-5.8491,-5.8547,-5.8715,-5.8723,-5.873,-5.8772,-5.8787,-5.88,0,0,0,0,0,0,-5.8012,-5.8078,-5.8072,-5.818,-5.823,-5.8287,-5.834,-5.8335,-5.8393,-5.8387,-5.8401,-5.8414,-5.8511,-5.8538,-5.8488,-5.8656,-5.861,-5.8622,-5.8634,-5.8649,-5.866,-5.8652,-5.8452,0,0,0,0,0,-5.8031,-5.8099,-5.8152,-5.8242,-5.8267,-5.83,-5.8339,-5.8346,-5.8397,-5.8418,-5.8453,-5.8503,-5.8568,-5.861,-5.8671,-5.8781,-5.8794,-5.8829,-5.8841,-5.885,-5.8861,-5.8922,-5.8939,-5.876,-5.876,-5.876,0,0,-5.807,-5.8115,-5.8156,-5.8249,-5.8288,-5.8357,-5.8317,-5.8391,-5.8443,-5.8428,-5.8522,-5.8549,-5.8605,-5.8709,-5.8756,-5.8734,-5.8913,-5.886,-5.8867,-5.8873,-5.8932,-5.8949,-5.8964,-5.8766,-5.8765,-5.8764,0,0,-5.8178,-5.8218,-5.8298,-5.834,-5.8401,-5.8422,-5.8442,-5.85,-5.8519,-5.8613,-5.8604,-5.8665,-5.8775,-5.8817,-5.8852,-5.8978,-5.8967,-5.8997,-5.9057,-5.9117,-5.9131,-5.9144,-5.919,-5.9206,-5.9007,-5.9007,-5.9008,0,-5.8218,-5.8324,-5.834,-5.8416,-5.8458,-5.845,-5.8532,-5.857,-5.8648,-5.8676,-5.8651,-5.8792,-5.8829,-5.8943,-5.8974,-5.9002,-5.9025,-5.899,-5.9128,-5.9141,-5.9153,-5.9197,-5.9215,-5.9011,-5.901,-5.901,-5.901,0,-5.8372,-5.8445,-5.8502,-5.8581,-5.8628,-5.8706,-5.8734,-5.878,-5.8783,-5.8807,-5.8903,-5.8948,-5.902,-5.9047,-5.905,-5.9162,-5.9147,-5.9125,-5.908,-5.9173,-5.9215,-5.9232,-5.9016,-5.9014,-5.9013,-5.9013,0,0,-5.8498,-5.8587,-5.8608,-5.8644,-5.8713,-5.8769,-5.8847,-5.892,-5.896,-5.9013,-5.908,-5.9175,-5.9156,-5.9196,-5.9204,-5.9256,-5.9355,-5.9228,-5.923,-5.9252,-5.9483,-5.95,-5.952,-5.9349,-5.9352,-5.9355,-5.9479,0,-5.8614,-5.8754,-5.8772,-5.8896,-5.8965,-5.896,-5.9028,-5.9077,-5.9102,-5.9163,-5.9189,-5.9257,-5.9226,-5.9251,-5.9303,-5.9332,-5.9402,-5.9323,-5.941,-5.9413,-5.9398,-5.9541,-5.9559,-5.9675,-5.9496,-5.9498,-5.95,0,-5.8766,-5.8828,-5.896,-5.9022,-5.9051,-5.9112,-5.9181,-5.924,-5.9295,-5.931,-5.9356,-5.9358,-5.9438,-5.939,-5.9501,-5.9447,-5.9484,-5.9504,-5.9509,-5.9518,-5.9463,-5.9556,-5.9712,-5.973,-5.9526,-5.9524,-5.9522,0,-5.8848,-5.8963,-5.9058,-5.9089,-5.9163,-5.9206,-5.9239,-5.9291,-5.9335,-5.9394,-5.9423,-5.949,-5.9527,-5.9579,-5.9599,-5.9561,-5.971,-5.9662,-5.9724,-5.9724,-5.9756,-5.9753,-5.9921,-5.9777,-5.9777,-5.9777,-5.9776,0,-5.8975,-5.9056,-5.9097,-5.9155,-5.9246,-5.9265,-5.9355,-5.9385,-5.9432,-5.9496,-5.9495,-5.9554,-5.9576,-5.9639,-5.9654,-5.9745,-5.9761,-5.9775,-5.9779,-5.9776,-5.9775,-5.9801,-5.9794,-5.9781,-5.978,-5.9779,-5.9779,0,-5.9081,-5.9112,-5.9215,-5.9277,-5.9295,-5.9359,-5.9412,-5.9468,-5.9493,-5.9574,-5.9594,-5.9632,-5.9706,-5.9731,-5.982,-5.9831,-5.9937,-5.9933,-5.9919,-5.992,-5.9981,-5.9976,-6.0172,-6.0199,-6.0036,-6.0038,-6.0039,0,-5.9161,-5.9224,-5.9294,-5.9338,-5.9373,-5.9443,-5.9488,-5.9509,-5.9556,-5.9626,-5.9674,-5.9748,-5.9809,-5.9928,-5.9963,-6.0031,-6.0029,-6.0094,-6.0039,-6.0036,-6.0032,-6.0029,-6.0036,-6.0104,-6.0105,-6.0107,-6.0108,0,-5.93,-5.9313,-5.9379,-5.9451,-5.9506,-5.9563,-5.9618,-5.9653,-5.9683,-5.9735,-5.9813,-5.986,-5.9953,-6.0027,-6.0098,-6.0129,-6.0124,-6.0125,-6.0143,-6.0142,-6.0132,-6.014,-5.9948,-6.012,-6.0119,-6.0118,-6.0117,-6.0117,-5.9397,-5.9454,-5.9513,-5.9587,-5.9631,-5.9684,-5.9741,-5.9774,-5.9839,-5.9918,-5.9926,-6.001,-6.0065,-6.016,-6.0196,-6.0261,-6.0243,-6.0268,-6.0275,-6.0282,-6.0287,-6.0121,-6.0273,-6.0273,-6.0273,-6.0272,-6.0272,0,-5.9537,-5.9575,-5.9644,-5.9723,-5.9781,-5.9773,-5.9834,-5.9884,-5.9958,-6.0011,-6.0072,-6.0162,-6.0234,-6.0276,-6.0348,-6.0393,-6.0392,-6.0411,-6.0408,-6.0416,-6.0298,-6.0276,-6.041,-6.041,-6.041,-6.041,-6.041,-6.041,-5.9617,-5.9713,-5.9733,-5.9852,-5.9889,-5.9973,-6.0009,-6.0058,-6.01,-6.0202,-6.0263,-6.029,-6.0339,-6.0416,-6.0482,-6.0492,-6.0519,-6.054,-6.0549,-6.0438,-6.0424,-6.0411,-6.039,-6.0546,-6.0546,-6.0661,-6.0662,-6.0663]}]]